Weather in Kakhib

Russia / Republic of Dagestan     42°25′44″N   46°35′47″E
temp.,
°C
wind,
m/s
gust,
m/s
humid.,
%
clouds,
%
prec.,
mm/h
press.,
hPa
HPBL,
m
17 october, sun
sun1700:00+8sw32650 0.0 101524
03:00+8sw32660 0.0 101522
06:00+7sw22660 0.0 101515
09:00+13nne11490 0.0 1013341
12:00+15ne32469 0.0 10111198
15:00+14ene325210 0.4 1010722
18:00+9s11817 1.6 101211
21:00+7wsw118365 2.7 101311
18 october, mon
mon1800:00+7nw128598 2.6 101497
03:00+6nw119493 3.2 101473
06:00+6wnw019173 0.4 101496
09:00+8n118286 0.7 1015483
12:00+9nne217275 0.6 1013689
15:00+9ne2275100 2.9 1013528
18:00+6n1295100 3.1 1015213
21:00+5n2297100 7.6 1016251
19 october, tue
tue1900:00+5n1193100 0.4 1017236
03:00+5nne119399 0.8 1017209
06:00+5ene1194100 0.5 1017187
09:00+6ene118776 1.0 1017340
12:00+7ne2183100 1.0 1015835
15:00+6e018384 4.0 1014253
18:00+5nne119149 0.4 101558
21:00+4sw118677 0.8 1016102
20 october, wed
wed2000:00+3nw129088 0.4 1016143
03:00+2nw2298100 0.9 1016273
06:00+1nnw2399100 1.2 1019224
09:000nnw3399100 2.5 1020193
12:00−1nnw3497100 1.7 1021380
15:00−1nnw449198 2.6 1022512
18:00−3nw359344 0.3 1027260
21:00−4wnw349460 0.3 1029113
21 october, thu
thu2100:00−4w3391100 0.0 102964
03:00−3w228677 0.0 102740
06:00−3w22865 0.0 102920
09:00+2nw23702 0.0 1026274
12:00+5nnw33500 0.0 1024559
15:00+5nnw23460 0.0 1024548
18:00+1wsw22650 0.0 102613
21:00+1sw22651 0.0 102613